Temperature
22 21 21 21 20 20 20 20 19 19 19 19 19 19 19 19 19 19 19 19 19 19 19 19 18 18 18 19 19 19 19 19 19 19 19 19 19 19 20 20 20 20 20
22 21 20 20 20 20 20 19 19 19 19 19 18 19 19 19 19 19 19 19 19 19 18 18 18 18 18 18 18 19 19 19 19 18 18 18 18 19 20 21 21 20 20
23 22 22 21 21 21 20 20 19 19 19 18 18 18 18 18 18 18 19 19 19 19 18 18 18 18 17 18 18 18 18 18 18 18 18 17 17 19 20 20 20 20 20
24 23 23 22 21 21 20 20 19 18 18 17 17 17 17 17 17 18 18 18 18 18 18 18 18 17 17 17 17 17 17 17 17 17 17 17 17 17 18 19 19 19 19
24 24 23 22 21 21 20 19 19 18 17 17 16 16 16 16 17 17 17 17 17 17 17 17 17 17 17 17 16 16 16 16 16 16 16 16 16 16 16 17 18 18 18
24 24 23 22 21 20 20 19 18 17 17 16 16 16 16 16 16 16 16 16 17 17 17 16 16 16 16 16 16 15 15 15 15 15 15 15 15 16 16 16 17 17 18
25 24 23 22 21 20 19 18 17 17 16 16 16 16 16 16 16 16 16 16 16 16 16 16 16 15 15 15 15 15 15 14 14 14 15 15 15 15 16 16 16 16 17
25 24 23 22 21 20 19 18 17 16 16 15 15 15 15 15 15 15 15 15 15 16 16 15 15 15 15 15 14 14 14 14 14 14 14 15 15 15 15 16 16 16 17
25 24 24 23 21 20 19 17 16 15 15 15 15 15 14 14 14 14 15 15 15 15 15 15 15 15 14 14 14 14 14 14 14 14 14 15 15 15 15 15 15 16 16
25 24 23 22 21 19 18 17 15 15 15 14 14 14 14 13 14 14 14 14 14 14 14 14 14 14 14 14 14 14 14 14 14 14 14 15 15 15 15 15 15 15 15
24 24 23 21 20 19 18 16 15 15 14 14 14 13 13 13 13 13 13 13 13 13 14 13 14 14 14 14 14 14 14 14 14 14 14 14 14 14 15 15 15 15 15
23 23 22 21 20 19 18 16 15 15 14 14 13 13 13 12 12 12 12 12 12 12 12 13 13 13 13 13 14 14 14 14 14 14 14 14 14 14 14 14 14 14 14
23 23 22 21 20 19 17 16 16 15 14 13 13 13 12 12 12 12 12 12 12 12 12 12 12 13 13 13 13 13 13 13 13 13 13 13 13 13 13 13 14 14 14
23 22 21 20 19 18 17 16 15 15 14 14 13 12 12 12 12 11 11 11 11 11 11 12 12 12 12 13 13 13 13 13 12 12 13 13 13 13 13 13 13 14 14
22 22 21 20 19 18 17 16 15 15 14 14 13 13 12 12 12 12 12 11 11 11 11 11 11 12 12 12 12 12 12 12 12 12 13 12 12 13 13 13 13 13 13
22 22 21 20 19 18 17 16 16 15 14 14 13 13 12 12 12 12 12 11 11 11 11 11 11 12 12 12 12 12 12 12 12 12 12 12 12 12 12 12 13 13 13
21 21 21 20 19 18 17 16 15 15 14 14 13 13 13 12 12 12 12 11 11 11 11 11 12 12 12 12 12 11 12 12 12 12 12 12 12 12 12 12 12 12 12
20 20 20 20 19 18 17 16 16 15 14 14 13 13 13 12 12 12 12 12 11 11 11 12 12 12 12 12 11 11 11 11 11 11 11 12 12 12 12 11 11 12 12
19 19 20 19 19 18 17 17 16 15 14 14 14 13 13 13 12 12 12 12 12 12 12 12 12 12 12 12 12 11 11 11 11 11 11 11 11 11 11 11 11 12 11
17 18 19 19 19 18 17 16 16 15 14 14 14 13 13 13 13 12 12 12 12 12 12 12 12 12 12 12 12 12 11 11 11 11 11 11 11 11 11 11 11 11 12
16 17 17 18 18 18 17 16 16 15 15 14 14 13 13 13 13 13 12 12 12 12 12 12 12 12 12 12 12 12 12 11 11 11 11 11 11 11 11 11 11 11 11
14 14 15 15 17 17 16 16 15 15 15 14 14 13 13 13 12 12 12 12 12 11 11 11 11 11 12 12 12 12 12 12 11 11 11 11 11 11 10 11 10 11 11
12 12 13 13 14 15 15 15 15 14 14 14 14 13 13 13 12 12 12 12 12 11 11 11 11 11 11 12 12 11 11 11 11 11 11 11 11 10 10 10 10 10 10
11 11 11 11 12 13 14 14 14 14 14 13 13 13 13 12 12 12 12 12 11 11 11 11 11 11 11 11 11 11 11 11 11 11 11 11 10 10 10 10 10 10 9
10 10 10 10 11 12 12 13 14 13 13 13 13 13 12 12 12 12 12 12 12 12 12 11 11 11 11 11 11 11 11 11 10 10 11 10 10 10 10 10 10 10 9
10 10 10 10 10 10 11 11 13 13 13 13 13 12 12 12 12 12 11 11 12 12 12 12 11 11 11 11 11 11 11 11 11 10 10 11 11 11 11 11 10 9 9
Wind_Speed
3 1 2 3 2 3 3 3 4 5 5 5 5 6 7 7 8 9 9 7 7 6 7 8 6 7 8 8 7 6 7 6 6 4 4 7 12 13 12 12 11 11 9
4 4 4 3 2 2 3 4 4 4 5 5 5 5 7 7 7 7 9 8 8 7 9 8 8 8 8 8 8 7 7 6 6 5 3 3 7 11 14 10 10 9 7
5 6 5 2 1 1 3 5 4 4 6 6 6 7 6 7 9 9 8 9 10 9 9 10 9 9 9 9 9 9 10 9 7 6 5 4 4 5 6 5 4 4 4
3 2 1 2 4 4 4 4 4 5 5 6 8 9 10 10 10 9 8 9 10 11 10 10 9 9 8 8 9 10 9 9 7 4 5 6 5 4 4 5 4 3 3
2 2 3 3 4 5 6 6 6 5 6 7 9 10 12 11 10 9 10 9 9 10 10 9 8 8 8 8 8 7 7 6 5 4 3 5 6 8 6 6 5 4 4
5 4 4 3 3 4 5 6 7 7 8 9 10 10 12 12 13 13 12 10 8 8 9 9 8 8 7 7 6 6 5 4 3 3 3 3 4 4 5 5 4 5 4
5 4 4 4 4 5 5 4 6 7 8 10 10 11 11 11 11 11 11 10 9 8 8 8 8 7 6 6 4 4 3 3 3 3 3 4 5 4 4 4 3 4 3
6 4 3 4 3 4 4 4 6 7 9 11 10 9 9 7 7 8 8 8 7 7 7 8 8 8 7 6 5 4 4 4 4 5 5 4 4 3 4 2 2 3 2
7 7 6 3 4 5 4 4 5 6 8 9 8 7 6 5 6 6 6 5 5 5 5 6 7 7 7 6 5 4 6 5 5 6 6 4 3 2 1 1 1 1 2
10 9 5 5 5 4 2 1 2 4 5 6 6 5 5 6 6 7 8 7 6 5 3 1 2 3 4 4 4 5 6 6 5 5 4 2 1 0 1 1 1 0 1
14 9 5 4 4 3 3 2 2 2 3 3 3 4 5 6 6 7 8 8 8 9 7 5 3 2 3 4 5 6 6 7 6 5 6 6 5 4 4 3 3 2 2
10 8 6 4 4 4 4 4 3 3 2 2 2 3 3 4 5 6 7 8 8 8 8 6 4 1 2 3 4 6 7 7 8 7 7 7 6 6 5 4 5 4 3
9 7 5 4 5 4 4 5 5 4 4 4 3 2 2 3 4 5 5 6 7 7 7 7 5 3 4 5 6 7 8 9 9 8 9 9 8 7 6 6 6 5 4
9 7 4 4 3 3 4 5 5 5 6 5 5 3 1 1 2 3 3 3 4 4 4 4 4 5 6 6 8 9 10 10 11 11 10 9 8 6 7 8 8 7 6
12 8 5 3 3 4 5 6 6 6 6 5 6 5 4 2 1 2 1 1 1 1 2 4 4 5 7 7 8 9 11 10 10 9 9 9 9 10 8 8 7 8 8
13 9 6 4 4 4 5 6 5 5 6 6 6 6 6 4 3 2 2 2 2 1 2 3 5 8 8 13 14 10 8 8 8 7 7 9 9 7 8 9 10 10 9
11 9 7 5 4 5 5 5 5 5 6 6 6 7 7 6 4 3 3 3 3 3 4 7 8 8 9 14 14 12 8 9 9 9 9 10 11 11 7 2 3 6 10
13 11 9 7 6 6 7 7 7 6 6 6 7 8 9 8 5 3 4 4 4 4 5 8 8 7 8 12 14 11 8 7 8 9 9 9 9 12 11 9 9 7 7
14 11 10 9 7 6 7 7 7 7 7 7 7 9 10 9 7 5 5 4 5 5 5 7 7 7 5 9 12 11 4 6 9 10 10 9 8 13 15 9 8 8 7
17 14 12 9 7 7 7 7 8 8 8 7 8 10 11 11 10 7 6 5 6 5 5 7 7 7 5 6 10 10 3 4 7 8 9 11 9 10 12 7 7 7 7
20 19 16 9 7 8 8 9 9 8 8 7 8 10 12 12 11 9 6 6 6 6 5 7 6 6 6 5 8 10 5 3 2 7 7 5 7 9 9 7 5 6 7
22 20 18 15 9 8 10 11 10 8 7 7 8 10 11 12 13 11 9 7 7 7 6 6 6 5 5 5 7 9 9 8 7 7 7 5 5 7 8 6 9 13 11
22 20 18 17 15 10 9 12 11 8 7 7 8 9 11 11 10 12 12 9 8 7 7 7 7 6 6 5 7 8 10 13 8 6 7 7 4 3 4 4 7 8 7
21 19 19 18 16 15 12 12 11 9 9 8 8 9 10 10 10 11 11 11 11 9 8 8 8 7 7 6 5 4 5 7 6 6 5 4 2 3 5 4 2 2 4
18 17 16 17 16 16 16 14 13 11 10 9 9 10 10 10 10 11 9 10 9 9 9 8 8 8 7 6 7 5 4 3 3 5 4 3 4 4 4 3 3 5 5
17 18 18 19 17 14 15 16 13 13 12 10 10 10 10 10 10 10 7 6 4 8 13 11 10 8 11 16 15 13 12 10 6 1 4 6 6 5 3 3 5 6 5
Wind_Direction
99 71 287 288 270 292 298 278 275 286 285 279 275 271 271 272 274 275 271 269 263 248 231 246 240 228 240 240 225 217 225 226 222 234 264 273 272 261 250 240 238 240 238
166 190 219 240 262 300 318 305 297 312 302 286 286 274 274 272 266 260 265 261 259 255 248 238 248 244 244 244 234 225 227 227 214 204 223 261 270 264 256 234 223 230 236
169 177 188 179 248 320 313 308 334 314 304 307 296 283 275 265 262 254 247 241 241 240 241 245 246 248 246 246 236 228 229 231 222 207 206 227 238 296 302 300 259 231 229
154 144 66 29 336 333 323 332 318 292 284 284 280 281 280 275 273 273 265 253 242 240 239 241 241 242 243 244 243 234 229 230 231 227 222 239 265 272 296 301 315 345 331
220 255 278 295 311 325 332 327 314 307 297 282 275 273 273 272 274 275 272 263 254 244 240 236 236 240 241 242 242 239 223 218 221 226 240 243 251 245 251 276 299 325 313
249 246 257 281 310 321 319 319 332 331 323 307 293 280 275 276 278 280 281 279 267 249 234 226 228 233 233 235 235 224 204 190 213 240 253 258 251 244 239 257 285 290 285
279 281 300 307 300 298 298 317 333 334 325 314 305 297 289 284 280 281 282 281 274 259 236 223 217 217 215 212 200 195 184 181 204 231 254 261 259 261 248 245 264 278 285
278 284 286 271 292 308 325 348 352 337 329 322 317 314 312 307 305 304 296 288 279 267 248 225 216 211 207 203 192 191 195 195 209 230 234 241 249 253 244 246 282 299 304
297 290 282 321 354 350 359 356 348 339 333 331 333 339 353 357 348 339 326 315 304 287 262 227 214 209 203 200 189 200 205 198 200 212 219 218 219 233 266 291 293 320 346
308 310 340 351 350 344 332 309 327 328 331 337 342 2 13 17 15 16 13 4 358 353 354 264 195 185 182 180 182 198 194 175 178 187 174 147 121 84 268 255 230 94 33
328 324 334 331 327 316 282 227 245 273 306 331 350 3 11 18 19 20 17 17 19 20 25 23 51 124 155 170 176 175 164 155 153 147 124 102 66 41 26 4 25 43 46
325 316 312 318 317 299 276 251 237 242 242 263 307 344 1 13 20 23 19 16 18 16 13 11 354 309 140 144 131 123 119 113 104 94 89 84 74 58 34 9 27 36 51
320 312 303 297 297 285 272 266 251 237 227 226 244 272 327 20 28 27 25 16 10 7 1 352 346 27 68 79 84 83 85 84 83 81 75 66 56 40 18 34 31 28 26
315 303 281 272 287 280 266 263 260 241 234 222 230 235 243 46 64 57 43 18 355 350 350 356 21 52 65 72 78 79 78 78 73 69 67 63 57 38 22 47 29 22 18
312 299 279 267 263 261 254 256 247 240 239 232 230 218 199 188 153 122 127 138 313 3 32 63 61 59 57 61 77 92 91 87 88 87 84 76 71 61 54 62 42 37 36
310 308 304 290 263 247 251 252 242 234 231 235 229 204 191 190 175 165 164 152 157 152 135 110 83 72 65 49 54 79 84 85 84 89 102 91 60 57 70 78 66 58 52
320 319 308 289 253 234 232 235 234 230 230 232 222 195 188 188 186 190 158 148 149 133 104 93 88 80 57 50 48 63 81 75 68 59 54 62 43 28 9 72 123 78 64
320 311 302 291 262 230 219 218 223 224 228 225 210 194 186 184 185 180 154 159 132 107 100 100 99 94 69 49 41 43 88 85 79 70 72 66 42 22 8 29 33 37 40
304 287 275 268 260 241 228 222 216 218 227 225 204 191 185 182 181 180 169 153 130 129 123 117 113 103 80 52 41 27 82 92 79 69 61 68 52 23 21 28 25 18 8
317 301 280 258 238 228 222 223 222 215 219 217 195 185 184 183 184 182 176 160 146 156 146 132 130 129 115 68 48 26 360 118 117 107 85 68 62 39 27 23 21 12 344
329 331 319 278 233 215 208 217 226 224 216 207 187 181 184 186 185 181 180 168 165 165 156 144 143 142 130 100 60 40 22 345 147 132 108 82 63 47 23 16 24 349 317
331 335 335 322 276 223 209 214 220 221 215 204 187 181 181 191 190 183 183 179 174 161 154 152 150 136 129 105 90 67 47 31 63 84 101 108 75 42 12 9 1 357 357
327 331 332 330 315 271 224 219 216 211 217 207 188 179 185 198 184 181 185 181 179 176 173 173 171 159 139 113 111 94 72 71 83 94 111 122 106 11 315 326 350 8 19
321 325 328 327 327 315 267 230 218 208 212 209 186 178 183 186 181 183 186 187 186 186 187 186 181 162 150 154 159 151 124 113 125 131 129 149 184 272 296 294 307 77 48
312 315 317 321 321 325 307 258 222 211 210 205 187 181 181 179 178 183 186 192 191 191 190 192 177 163 166 159 161 171 153 146 113 145 163 201 214 225 234 203 107 76 51
308 311 314 315 318 317 318 295 244 214 207 204 191 188 183 178 176 172 153 63 119 166 184 172 158 154 143 137 123 114 108 98 95 134 229 228 218 195 161 102 106 97 71
Height
1501 1503 1503 1503 1503 1503 1503 1502 1502 1502 1502 1503 1503 1502 1502 1502 1502 1502 1502 1502 1502 1502 1502 1502 1503 1502 1503 1502 1502 1501 1502 1503 1505 1506 1504 1503 1505 1506 1506 1505 1504 1504 1504
1500 1502 1503 1503 1503 1503 1502 1501 1501 1500 1499 1499 1499 1498 1497 1497 1496 1496 1495 1495 1496 1496 1496 1496 1496 1496 1496 1496 1495 1495 1496 1496 1498 1499 1498 1498 1500 1500 1500 1498 1497 1498 1498
1499 1501 1502 1503 1503 1502 1502 1501 1499 1498 1497 1496 1494 1493 1492 1491 1490 1489 1489 1488 1488 1488 1489 1489 1489 1489 1489 1488 1488 1488 1489 1489 1490 1491 1493 1493 1493 1495 1493 1492 1493 1493 1493
1498 1500 1501 1502 1502 1502 1501 1499 1497 1495 1493 1492 1490 1489 1487 1485 1484 1484 1482 1482 1481 1481 1480 1480 1480 1480 1480 1480 1480 1479 1480 1481 1482 1483 1484 1486 1489 1492 1490 1489 1489 1487 1487
1497 1498 1500 1500 1500 1500 1498 1497 1495 1492 1490 1488 1486 1484 1481 1479 1477 1476 1475 1474 1473 1472 1472 1472 1472 1472 1471 1471 1472 1472 1472 1473 1474 1476 1478 1480 1484 1486 1487 1485 1484 1483 1482
1494 1496 1497 1497 1497 1496 1495 1494 1491 1489 1486 1484 1481 1478 1475 1473 1471 1469 1467 1466 1465 1464 1464 1464 1464 1464 1464 1464 1464 1465 1465 1466 1467 1469 1471 1475 1479 1480 1481 1481 1479 1478 1477
1491 1492 1493 1494 1493 1493 1491 1490 1487 1484 1481 1478 1475 1472 1469 1466 1464 1462 1460 1459 1458 1457 1456 1457 1457 1457 1457 1457 1458 1459 1459 1460 1462 1465 1468 1472 1475 1477 1477 1477 1475 1474 1474
1488 1488 1489 1489 1489 1489 1487 1485 1482 1480 1477 1473 1470 1466 1462 1460 1457 1455 1454 1452 1451 1450 1450 1450 1451 1451 1452 1453 1453 1454 1456 1457 1459 1462 1466 1470 1472 1473 1473 1474 1473 1473 1473
1484 1484 1485 1485 1485 1485 1484 1481 1479 1476 1473 1470 1465 1461 1458 1455 1453 1451 1449 1447 1445 1444 1444 1444 1445 1447 1448 1449 1450 1452 1454 1456 1458 1461 1465 1467 1469 1470 1471 1471 1472 1472 1472
1480 1480 1481 1481 1482 1481 1480 1478 1476 1474 1470 1467 1463 1460 1457 1454 1451 1448 1446 1444 1442 1441 1440 1440 1442 1443 1444 1446 1448 1450 1452 1455 1457 1460 1463 1465 1467 1468 1470 1470 1471 1471 1471
1477 1477 1477 1478 1478 1478 1477 1475 1473 1471 1468 1465 1462 1459 1456 1453 1451 1448 1446 1443 1442 1440 1439 1439 1440 1441 1443 1445 1447 1449 1451 1454 1456 1459 1462 1464 1465 1467 1468 1469 1469 1469 1469
1475 1474 1474 1474 1475 1475 1474 1473 1471 1469 1466 1464 1461 1459 1456 1454 1451 1449 1446 1445 1443 1441 1441 1440 1441 1442 1444 1446 1448 1450 1452 1454 1456 1459 1461 1463 1465 1466 1467 1468 1468 1468 1468
1471 1471 1471 1471 1471 1471 1470 1470 1468 1467 1465 1462 1460 1459 1457 1454 1452 1449 1448 1446 1445 1444 1443 1442 1443 1443 1445 1447 1449 1451 1453 1456 1458 1460 1461 1463 1465 1466 1467 1467 1467 1467 1468
1468 1467 1466 1467 1467 1467 1466 1466 1465 1464 1462 1460 1459 1457 1456 1454 1452 1451 1449 1448 1447 1446 1446 1445 1445 1446 1447 1450 1451 1453 1455 1457 1459 1461 1463 1464 1466 1467 1467 1467 1467 1468 1468
1465 1463 1462 1462 1462 1462 1462 1462 1461 1460 1459 1458 1456 1455 1454 1454 1453 1452 1451 1450 1450 1449 1449 1448 1449 1450 1451 1453 1455 1457 1458 1460 1462 1464 1466 1467 1468 1469 1469 1469 1469 1469 1468
1462 1460 1459 1459 1458 1458 1458 1457 1457 1456 1455 1454 1453 1452 1452 1452 1452 1452 1452 1452 1452 1452 1452 1453 1453 1454 1456 1458 1459 1460 1462 1464 1466 1467 1469 1470 1471 1471 1471 1471 1471 1471 1471
1460 1458 1457 1456 1454 1454 1453 1452 1452 1452 1452 1451 1450 1449 1450 1451 1451 1452 1453 1453 1454 1455 1456 1456 1457 1458 1460 1462 1463 1464 1465 1466 1468 1470 1471 1472 1472 1473 1473 1473 1473 1473 1473
1459 1457 1454 1452 1450 1449 1448 1448 1447 1448 1448 1447 1447 1447 1447 1449 1450 1451 1453 1454 1456 1457 1458 1458 1459 1460 1462 1464 1466 1467 1468 1470 1471 1472 1472 1473 1474 1474 1475 1474 1474 1474 1474
1457 1453 1449 1447 1445 1444 1444 1443 1443 1443 1443 1444 1443 1444 1445 1446 1448 1450 1452 1454 1456 1458 1459 1460 1461 1462 1464 1466 1468 1469 1471 1472 1472 1473 1474 1475 1476 1476 1476 1476 1475 1475 1475
1453 1448 1443 1440 1438 1438 1438 1438 1438 1438 1438 1439 1440 1440 1442 1444 1446 1448 1451 1453 1456 1458 1460 1461 1463 1464 1466 1468 1469 1471 1472 1473 1474 1475 1475 1476 1477 1477 1477 1476 1476 1476 1476
1449 1443 1438 1434 1431 1431 1431 1431 1432 1432 1433 1434 1435 1436 1438 1440 1443 1446 1449 1452 1455 1458 1460 1462 1464 1466 1467 1469 1471 1472 1473 1474 1475 1475 1476 1477 1478 1478 1477 1477 1477 1477 1477
1446 1440 1434 1429 1426 1424 1423 1423 1424 1426 1428 1429 1430 1432 1434 1437 1440 1443 1446 1450 1453 1456 1459 1461 1463 1465 1467 1469 1471 1473 1474 1475 1476 1477 1477 1478 1479 1479 1479 1479 1479 1478 1478
1445 1438 1431 1425 1422 1418 1416 1416 1417 1420 1422 1423 1424 1427 1429 1433 1436 1439 1442 1446 1450 1453 1456 1459 1462 1464 1466 1469 1471 1473 1474 1476 1476 1478 1479 1480 1480 1481 1481 1481 1481 1480 1479
1442 1435 1428 1422 1416 1411 1409 1411 1412 1414 1415 1417 1419 1421 1424 1428 1431 1435 1438 1442 1445 1449 1453 1457 1460 1463 1465 1468 1470 1472 1474 1475 1477 1478 1479 1480 1481 1481 1481 1482 1481 1481 1480
1437 1432 1425 1418 1412 1407 1403 1405 1406 1407 1409 1411 1413 1415 1419 1423 1426 1430 1434 1438 1441 1445 1449 1453 1457 1460 1463 1466 1468 1471 1473 1475 1476 1478 1479 1480 1481 1481 1481 1482 1481 1481 1480
1432 1427 1421 1414 1408 1403 1398 1397 1398 1400 1402 1405 1407 1409 1413 1417 1422 1426 1430 1434 1438 1442 1446 1451 1454 1457 1461 1464 1467 1469 1471 1473 1475 1477 1478 1479 1480 1481 1482 1482 1482 1480 1480